Theta_e
321 320 318 315 314 314 314 316 318 313 323 327 325 323 322 318 324 321 328 336 336 336 335 336 337 338 340 342 343 345 347 349 350 350 349 351 353 355
319 315 315 313 313 313 311 311 311 315 313 318 314 319 315 318 323 316 319 335 336 334 333 333 334 335 335 337 339 340 341 342 346 346 347 346 347 350
315 315 315 314 311 312 312 311 311 311 309 311 312 315 314 312 314 316 319 316 325 333 331 330 329 330 331 333 333 334 335 336 337 339 341 340 345 346
319 318 317 319 315 314 313 313 313 310 309 306 309 311 312 313 312 313 315 320 317 326 332 329 327 326 326 328 329 329 328 330 330 331 332 332 335 337
317 317 316 315 313 314 313 316 315 317 311 308 308 310 309 311 311 311 311 312 318 329 330 328 327 328 327 324 325 325 324 324 325 326 326 328 329 332
320 320 317 317 317 319 316 316 314 312 310 308 308 308 308 309 309 309 308 310 313 319 320 323 323 326 326 326 324 325 322 321 321 321 322 322 324 325
321 321 321 323 325 322 315 312 311 310 310 307 306 307 307 305 307 309 307 308 311 313 312 313 312 313 315 322 323 326 323 321 320 320 319 319 320 321
320 322 322 334 326 326 326 323 315 309 307 305 307 305 306 307 308 309 308 307 307 311 311 310 312 312 313 315 324 324 324 323 321 320 319 318 318 319
320 320 324 322 320 316 322 325 323 324 317 309 305 306 306 310 310 309 309 308 308 310 309 307 309 309 312 316 322 325 324 323 321 320 319 318 317 316
322 322 319 316 317 315 314 312 313 314 315 318 313 312 311 313 313 313 310 308 309 310 310 306 308 308 310 312 321 325 324 322 320 319 317 315 313 312
323 319 320 318 321 320 310 310 312 313 321 324 322 321 322 325 323 312 309 308 306 306 310 309 307 308 309 309 313 321 318 316 316 316 316 315 312 310
315 318 323 313 318 318 308 313 310 310 312 309 307 309 313 312 322 314 310 307 305 306 309 308 306 307 305 308 310 310 310 312 310 311 312 312 311 311
312 310 313 318 314 313 314 312 311 309 311 305 305 306 310 313 313 312 311 309 306 307 312 309 307 306 305 305 307 307 305 306 305 306 308 308 308 310
313 313 310 316 312 312 311 312 313 315 305 303 303 304 308 309 312 314 313 312 313 312 312 310 307 306 303 301 301 303 304 304 304 304 304 307 307 309
315 316 315 311 311 310 312 314 314 306 303 302 302 304 308 310 311 310 310 307 308 308 309 308 305 304 303 300 299 299 300 301 302 301 302 302 302 302
317 313 314 314 311 309 309 309 309 306 304 304 304 307 309 310 309 308 305 303 302 302 305 307 305 304 299 300 299 298 300 298 301 301 301 301 301 301
312 312 307 305 305 307 307 309 311 310 310 307 308 308 308 307 306 308 303 303 301 300 301 304 307 303 302 301 299 300 299 299 301 301 301 301 300 301
309 309 310 310 309 309 309 310 306 311 309 308 308 307 307 306 306 306 305 306 304 301 301 304 303 300 300 301 308 302 300 299 302 301 301 301 301 302
309 308 308 307 306 307 309 303 305 307 308 308 307 307 307 306 307 305 306 308 307 306 306 305 299 298 295 295 300 310 301 303 304 302 300 299 299 302
307 309 309 306 309 306 304 303 304 307 306 307 306 306 306 306 305 307 308 305 304 304 303 299 299 299 297 300 299 304 307 305 304 301 303 300 303 308
305 304 305 307 307 305 303 303 304 305 306 306 305 305 304 308 309 309 307 304 304 303 298 298 301 309 303 303 300 302 307 306 307 304 300 298 300 303
307 308 308 307 305 304 305 306 307 306 305 305 304 303 304 305 309 308 305 304 304 299 299 301 303 304 303 301 302 303 304 306 307 309 310 307 302 301
311 308 305 306 307 309 308 307 306 305 304 304 303 302 303 304 308 307 306 305 301 300 300 303 307 306 304 303 304 304 304 304 305 303 302 309 311 311
Wind_Speed
4 4 3 2 3 4 3 3 5 4 1 2 2 2 1 3 4 2 1 2 2 3 5 6 6 7 6 5 4 5 7 13 20 24 24 23 23 23
3 4 3 2 4 4 3 3 2 5 4 3 1 2 1 2 5 3 3 1 3 1 1 4 5 5 5 6 6 7 5 5 7 10 21 29 23 18
5 5 5 3 3 4 3 3 4 3 5 1 1 3 4 3 4 4 4 4 3 6 3 3 5 4 5 5 5 5 6 6 6 4 2 8 19 25
5 6 5 4 4 4 3 5 4 4 4 2 3 2 1 2 2 2 4 4 5 5 6 7 7 6 5 5 3 2 4 4 5 6 7 6 9 10
7 6 6 6 4 3 3 4 3 2 3 3 1 1 1 1 3 2 2 4 3 6 2 5 8 10 9 8 5 4 2 2 1 2 4 5 5 7
6 6 6 6 6 4 4 5 3 4 3 4 2 1 1 2 2 2 4 2 3 3 3 2 6 8 9 6 9 8 5 3 4 2 4 5 7 8
5 5 5 7 9 7 4 3 3 2 2 3 2 1 1 1 0 2 2 3 3 1 3 3 4 4 5 5 6 8 6 7 6 6 6 5 6 6
7 6 6 8 7 7 7 7 5 4 3 3 2 2 3 2 1 1 1 3 4 2 4 5 1 3 4 2 6 9 9 9 8 8 8 7 6 6
7 6 6 4 6 5 4 1 2 2 4 5 3 5 3 5 2 1 2 2 4 4 1 4 1 2 3 4 7 6 8 9 8 7 7 9 10 9
7 6 6 6 6 6 4 2 3 5 5 4 6 6 5 3 4 4 5 4 3 4 4 2 2 3 2 3 9 8 5 5 6 6 7 6 7 7
6 7 7 7 8 9 6 4 4 4 3 7 11 8 10 12 11 2 4 3 4 3 3 4 2 2 2 2 3 10 9 9 7 5 8 10 7 7
3 5 12 9 10 10 7 5 4 5 3 2 4 4 7 7 7 7 3 4 3 3 2 2 0 2 4 2 2 3 3 6 6 2 6 8 9 4
5 4 3 8 10 9 8 7 7 4 3 2 3 3 3 4 4 3 2 3 2 3 3 2 2 1 1 3 3 2 2 3 3 4 7 8 7 5
5 4 5 10 9 9 6 8 9 5 2 3 2 3 3 3 2 4 3 3 3 4 2 3 2 2 1 2 3 3 3 4 2 3 3 5 8 7
4 6 8 11 11 7 9 7 5 4 3 3 4 3 3 4 1 2 1 3 2 0 1 2 3 2 3 3 3 3 4 4 3 3 4 4 4 2
5 3 2 3 2 3 3 3 5 5 5 5 4 3 2 3 2 3 2 0 0 3 4 3 4 4 2 4 3 4 4 3 3 4 4 4 4 5
6 3 2 1 2 4 4 5 5 4 4 3 4 3 3 3 2 3 2 2 3 2 3 3 4 3 4 3 3 5 4 4 5 5 3 6 5 6
4 3 3 4 5 3 4 4 2 2 2 2 3 3 3 3 2 2 3 4 4 3 3 2 2 1 3 5 13 7 4 4 6 5 4 7 8 5
3 3 4 3 2 4 3 3 3 3 2 3 3 4 4 3 3 2 3 3 3 2 3 2 3 3 2 5 5 10 4 5 7 6 4 5 8 9
3 4 4 3 4 4 4 3 2 2 1 2 3 2 2 3 2 3 3 2 2 2 3 1 3 5 5 6 4 5 9 6 6 8 7 4 7 19
3 2 3 4 4 4 3 2 3 3 3 3 2 1 2 2 3 4 2 3 2 2 3 5 6 12 3 1 3 7 6 16 13 8 4 4 5 5
3 5 5 4 5 4 3 3 4 3 3 3 2 1 2 2 3 3 3 3 3 3 4 5 8 3 3 4 10 10 5 6 8 16 18 16 5 5
3 4 4 4 4 4 4 4 4 3 3 3 1 1 2 2 3 1 2 3 3 4 4 7 7 2 4 5 9 7 8 8 5 6 5 12 18 23
Wind_Direction
75 76 71 32 81 93 94 143 144 150 160 265 119 0 37 82 107 46 330 314 59 24 14 12 28 29 28 11 342 310 282 252 241 235 229 223 217 218
96 80 85 94 73 49 80 88 105 136 140 204 234 171 31 14 24 29 334 313 246 216 5 336 346 25 28 23 359 352 349 330 283 267 254 223 237 217
111 100 71 31 65 65 39 47 67 80 111 338 45 27 20 12 350 6 22 354 303 282 275 292 295 318 343 5 18 17 0 351 12 3 323 6 244 218
140 119 130 126 86 68 59 46 54 48 102 107 8 26 73 329 314 31 351 15 349 308 259 262 283 296 292 304 339 12 8 18 25 19 25 18 20 341
170 149 148 124 109 101 98 87 52 76 97 124 106 47 56 324 10 342 348 344 329 0 70 292 299 298 284 248 251 255 239 278 1 350 348 360 5 356
163 159 154 132 133 134 114 108 85 68 70 86 72 34 27 317 30 30 347 351 335 2 6 54 0 332 342 228 222 242 259 279 284 311 336 355 355 3
154 163 148 153 148 158 140 132 106 66 69 74 78 49 310 335 333 324 311 313 305 311 332 348 354 339 350 20 211 229 241 259 281 295 302 319 332 349
174 174 167 155 156 151 122 130 153 157 140 140 169 194 255 219 246 252 315 12 328 299 8 307 44 314 298 314 261 226 222 232 249 267 285 290 292 306
160 161 165 167 162 141 119 85 321 236 162 157 178 219 230 222 183 258 246 211 239 275 65 295 165 282 283 320 325 264 246 242 245 256 277 302 308 313
158 173 169 169 177 155 145 221 272 285 274 231 216 241 237 276 221 210 215 226 271 261 173 225 320 280 305 332 340 341 278 291 327 316 302 276 273 276
170 178 167 161 169 151 152 187 270 284 276 253 237 267 274 262 243 215 255 203 273 267 200 156 280 303 324 322 348 32 60 55 27 350 315 306 278 268
147 168 156 160 177 168 163 172 223 241 238 319 336 321 296 292 302 201 193 219 202 323 280 140 45 63 332 299 327 17 358 4 349 288 284 290 290 290
163 168 173 179 183 186 172 182 208 192 268 309 292 290 321 321 355 354 212 163 178 241 253 125 165 59 179 300 310 311 356 321 320 311 313 309 307 232
175 183 185 188 192 207 200 223 232 230 268 279 293 306 298 264 299 277 241 184 213 210 238 138 149 145 153 300 276 313 304 301 279 279 298 293 298 302
172 195 184 193 206 230 232 232 245 234 238 248 250 247 223 210 148 264 26 71 66 281 201 174 150 165 158 201 248 268 320 299 285 267 288 283 269 275
133 134 173 158 153 263 315 254 228 222 213 223 221 235 183 138 193 203 190 240 37 294 289 247 212 174 219 225 202 268 236 258 287 285 267 264 258 242
104 63 58 40 280 273 273 266 259 218 211 196 203 191 178 161 226 197 192 205 201 235 284 277 225 239 248 225 276 246 258 257 244 259 258 271 263 263
94 161 193 206 231 262 271 286 299 157 171 156 150 163 174 196 232 231 224 206 216 227 244 242 179 327 325 283 220 255 260 250 277 253 246 276 281 272
162 179 209 213 254 256 235 196 197 215 156 148 160 178 180 212 220 242 245 224 227 224 240 216 196 187 245 256 274 235 243 270 290 283 248 247 272 274
149 200 212 202 248 190 186 200 199 175 164 175 147 165 201 207 233 259 244 197 213 256 269 257 239 225 214 251 241 269 203 260 278 279 280 252 253 269
171 221 201 211 203 177 202 218 196 188 158 144 141 166 255 246 260 262 186 181 255 247 277 272 245 242 243 23 279 267 263 217 234 259 263 263 274 284
186 224 224 187 161 149 155 156 133 119 131 140 165 314 306 278 265 258 184 208 236 243 251 263 278 252 206 216 262 280 282 285 227 245 252 244 242 270
207 162 146 126 123 135 138 135 135 150 152 145 148 262 291 318 316 216 233 245 268 284 266 289 297 241 250 239 259 276 276 291 300 309 278 242 243 245